Port Weller, Ontario

12:25 AM EST on November 19, 2017 (GMT -0500)
Port Weller

Weather History for CWWZ - September, 2012

Change the Weather History Date:

Wednesday, September 26, 2012

  Actual Average (CYSN) Record (CYSN)
Temperature  
Mean Temperature 61 °F -  
Max Temperature 66 °F 65 °F 91 °F (2017)
Min Temperature 56 °F 50 °F 41 °F (2001)
Degree Days  
Heating Degree Days 4    
Growing Degree Days 11 (Base 50)    
Moisture  
Dew Point 55 °F    
Average Humidity 80    
Maximum Humidity 91    
Minimum Humidity 64    
Precipitation  
Precipitation 0.00 in - - ()
Sea Level Pressure  
Sea Level Pressure 29.97 in    
Wind  
Wind Speed 6 mph ()    
Max Wind Speed 14 mph    
Max Gust Speed -    
Averages and records for this station are not official NWS values.
T = Trace of Precipitation, MM = Missing Value Source: Averaged Metar Reports

Daily Weather History Graph

Daily Weather History Graph

Search for Another Location

Airport or City:

Trip Planner

Search our weather history database for the weather conditions in past years. The results will help you decide how hot, cold, wet, or windy it might be!

Date:

Astronomy

Sep. 26, 2012 Rise Set
Actual Time 7:09 AM EDT 7:06 PM EDT
Civil Twilight 6:40 AM EDT 7:34 PM EDT
Nautical Twilight 6:07 AM EDT 8:07 PM EDT
Astronomical Twilight 5:33 AM EDT 8:41 PM EDT
Moon 5:08 PM EDT (9/26) 3:28 AM EDT (9/26)
Length of Visible Light 12h 53m
Length of Day
11h 56m
Waxing Gibbous, 88% of the Moon is Illuminated
Sep 26
Waxing Gibbous
Sep 29
Full
Oct 8
Last Quarter
Oct 15
New
Oct 21
First Quarter

Hourly Weather History & Observations

Time (EDT) Temp. Dew Point Humidity Pressure Visibility Wind Dir Wind Speed Gust Speed Precip Events Conditions
1:00 AM 62.6 °F 55.9 °F 79% 29.91 in - SSW 8.1 mph - N/A   Unknown
2:00 AM 62 °F 57 °F 78% 29.91 in - SSW 10.4 mph - -  
2:00 AM 61.5 °F 56.8 °F 85% 29.91 in - SSW 10.4 mph - N/A   Unknown
3:00 AM 61.7 °F 57.9 °F 87% 29.91 in - SSW 8.1 mph - N/A   Unknown
4:00 AM 61.9 °F 57.7 °F 86% 29.90 in - SSW 8.1 mph - N/A   Unknown
5:00 AM 62 °F 58 °F 81% 29.90 in - SSW 8.1 mph - -  
5:00 AM 61.7 °F 57.7 °F 87% 29.90 in - SSW 8.1 mph - N/A   Unknown
6:00 AM 61.5 °F 58.1 °F 89% 29.91 in - SW 3.5 mph - N/A   Unknown
7:00 AM 61.0 °F 58.3 °F 91% 29.91 in - SSW 2.3 mph - N/A   Unknown
8:00 AM 62 °F 59 °F 88% 29.93 in - SSW 4.6 mph - -  
8:00 AM 62.4 °F 59.4 °F 90% 29.93 in - SSW 4.6 mph - N/A   Unknown
9:00 AM 63.0 °F 59.5 °F 89% 29.94 in - South 4.6 mph - N/A   Unknown
10:00 AM 64.2 °F 59.7 °F 85% 29.94 in - SSW 5.8 mph - N/A   Unknown
11:00 AM 66 °F 59 °F 73% 29.95 in - SSW 6.9 mph - -  
11:00 AM 66.0 °F 59.4 °F 79% 29.95 in - SSW 6.9 mph - N/A   Unknown
12:00 PM 65.5 °F 59.5 °F 81% 29.95 in - SSW 4.6 mph - N/A   Unknown
1:00 PM 62.2 °F 57.2 °F 84% 29.96 in - NNW 9.2 mph - N/A   Unknown
2:00 PM 62 °F 57 °F 80% 29.96 in - North 6.9 mph - -  
2:00 PM 61.5 °F 57.4 °F 86% 29.96 in - North 6.9 mph - N/A   Unknown
3:00 PM 58.8 °F 53.2 °F 82% 29.96 in - NNE 6.9 mph - N/A   Unknown
4:00 PM 59.0 °F 51.3 °F 75% 29.98 in - NE 3.5 mph - N/A   Unknown
5:00 PM 59 °F 52 °F 69% 29.99 in - North 2.3 mph - -  
5:00 PM 59.2 °F 51.6 °F 76% 29.99 in - North 2.3 mph - N/A   Unknown
6:00 PM 58.3 °F 51.4 °F 78% 30.02 in - WNW 3.5 mph - N/A   Unknown
7:00 PM 58.1 °F 51.3 °F 78% 30.04 in - West 3.5 mph - N/A   Unknown
8:00 PM 58 °F 49 °F 65% 30.06 in - NW 3.5 mph - -  
8:00 PM 57.9 °F 49.5 °F 73% 30.06 in - NW 3.5 mph - N/A   Unknown
10:00 PM 57.0 °F 47.7 °F 71% 30.11 in - NNW 13.8 mph - N/A   Unknown
11:00 PM 56 °F 47 °F 64% 30.13 in - North 10.4 mph - -  
11:00 PM 56.1 °F 47.1 °F 72% 30.13 in - North 10.4 mph - N/A   Unknown